Location: Unspecified
(34.4950°S, 58.5160°W)
Time: 05:12:36
(UTC+00:00)

ACS3 Solar Sail - Pass Details

Date: 17 February 2026
Orbit: 885 x 974 km, 97.2° (Epoch: 11 March)

Event Time Altitude Azimuth Distance (km) Brightness Sun altitude
Exits shadow 03:45:47 11° 135° (SE) 2,585 4.3 -43.2°
Drops below altitude 10° 03:46:27 10° 141° (SE) 2,675 4.4 -43.2°
Sets 03:50:32 0° 168° (SSE) 3,653 5.5 -43.3°
